Home > Time Zones > World Clock > Weather > Fiji > Nadi > Past weeks

Flag for Fiji Weather past 2 weeks in Nadi, Fiji

Now
79 °F

Passing clouds.


Feels Like: 82 °F
Forecast: 75 / 86 °F
Wind: 5 mph from East

Location: Nandi


UV Index: 5 (Moderate)

Visibility: N/A


Pressure: 29.83 "Hg

Humidity: 84%

Dew point: 73 °F

Location of NadiLocation

Historic Weather in Nadi

°F

Nadi temperature yesterday

Maximum temperature yesterday: 88 °F (at 2:00 PM)
Minimum temperature yesterday: 70 °F (at 6:00 AM)
Average temperature yesterday: 78 °F

Past Weeks' High & Low Weather Summary

 TemperatureHumidityPressure
High88 °F (Apr 8, 2:00 PM)100% (Apr 5, 4:00 AM)29.95 "Hg (Apr 5, 4:00 AM)
Low68 °F (Apr 6, 2:00 AM)48% (Apr 15, 5:00 PM)29.77 "Hg (Apr 6, 2:00 PM)
Average78 °F81%29.85 "Hg
* Reported Apr 1 7:00 PM — Apr 16 7:00 PM, Nadi, Weather by CustomWeather, © 2014

Note: Actual official high and low records may vary slightly from our data, if they occured in-between our weather recording intervals... More about our weather records

Advertising

Historic Weather Conditions — Data for Previous 24 hours

 ConditionsComfort  
Time TempWeatherWind HumidityBarometerVisibility
7:00 PM
Apr 16
79 °FPassing clouds.6 mph84%29.80 "HgN/A
6:00 PM82 °FPassing clouds.6 mph74%29.80 "HgN/A
5:00 PM84 °FScattered clouds.7 mph70%29.77 "HgN/A
4:00 PM86 °FScattered clouds.13 mph70%29.77 "HgN/A
3:00 PM86 °FPassing clouds.10 mph62%29.77 "HgN/A
2:00 PM86 °FScattered clouds.13 mph62%29.80 "HgN/A
1:00 PM84 °FScattered clouds.12 mph62%29.83 "HgN/A
11:00 AM86 °FPassing clouds.3 mph55%29.86 "HgN/A
10:00 AM84 °FScattered clouds.5 mph62%29.89 "HgN/A
9:00 AM79 °FBroken clouds.3 mph74%29.89 "HgN/A
8:00 AM77 °FPartly sunny.5 mph74%29.86 "HgN/A
7:00 AM73 °FPartly sunny.5 mph83%29.86 "HgN/A
6:00 AM73 °FPassing clouds.No wind83%29.83 "HgN/A
5:00 AM72 °FPassing clouds.No wind88%29.83 "HgN/A
4:00 AM72 °FPassing clouds.No wind88%29.83 "HgN/A
3:00 AM73 °FPassing clouds.8 mph89%29.83 "HgN/A
2:00 AM73 °FPassing clouds.7 mph89%29.83 "HgN/A
1:00 AM73 °FPassing clouds.7 mph89%29.86 "HgN/A
12:00 AM73 °FPassing clouds.9 mph89%29.86 "HgN/A
11:00 PM
Apr 15
75 °FPassing clouds.9 mph83%29.86 "HgN/A
10:00 PM75 °FPassing clouds.6 mph78%29.89 "HgN/A
9:00 PM75 °FPassing clouds.5 mph78%29.86 "HgN/A
8:00 PM75 °FPassing clouds.5 mph78%29.86 "HgN/A
Weather by CustomWeather, © 2014

See weather overview